{"data":{"norad_id":47271,"epoch":"2026-09-20T00:19:41.399040Z","epoch_age_seconds":56278,"freshness":"FRESH","line1":"1 47271U 20100P   26263.01367360  .00000060  00000+0  13171-3 0  9990","line2":"2 47271  87.8986 331.8338 0002181 102.9707 257.1665 13.12443527277073","mean_motion":13.12443527,"eccentricity":0.0002181,"inclination_deg":87.8986,"raan_deg":331.8338,"arg_perigee_deg":102.9707,"mean_anomaly_deg":257.1665,"bstar":0.00013171,"rev_number":27707,"period_min":109.71900659921,"perigee_km":1212.0654744655,"apogee_km":1215.377043038,"semimajor_km":7591.8582587517,"source":"CELESTRAK","updated_at":"2026-09-20T09:00:44.578478Z"}}